Regional Weather Roundup
Issued by NWS Kansas City/Pleasant Hill, MO

Home | Current Version | Previous Version | Graphics & Text | Print | Product List | Glossary Off
Versions: 1 2 3 4 5 6 7 8 9 10 11 12 13 14 15 16 17 18 19 20 21 22 23 24 25 26 27 28 29 30 31 32 33 34 35 36 37 38 39 40 41 42 43 44 45 46 47 48 49 50

462
ASUS43 KEAX 250810
RWREAX

WEATHER ROUNDUP FOR EASTERN KANSAS AND NORTHWEST MISSOURI
NATIONAL WEATHER SERVICE KANSAS CITY/PLEASANT HILL MO
300 AM CDT TUE APR 25 2017

KSZ040-057-103>105-MOZ028-029-037-043-250900-
...KANSAS CITY METROPOLITAN AREA...

CITY           SKY/WX    TMP DP  RH WIND       PRES   REMARKS
K.C. INTL      PTCLDY    61  46  57 S14       29.55F
K.C. DOWNTOWN  CLOUDY    63  45  51 S7        29.55F
LEES SUMMIT    CLOUDY    61  44  53 S14       29.56F
OLATHE - IXD   CLOUDY    60  46  59 S12       29.56F
OLATHE - OJC   CLOUDY    60  46  59 S9        29.56F
LAWRENCE       CLOUDY    62  48  60 SE9       29.54F

$$

MOZ001>008-011>017-020>025-030>033-038>040-044>046-053-054-250900-
...NORTHERN AND CENTRAL MISSOURI...

CITY           SKY/WX    TMP DP  RH WIND       PRES   REMARKS
ST. JOSEPH     CLOUDY    61  47  59 S9        29.52F
MOSBY          MOSUNNY   54  43  66 SE5       29.56F
WHITEMAN AFB   MOCLDY    55  42  60 S8        29.59F
CLINTON        CLOUDY    55  41  58 CALM      29.62S
SEDALIA        MOCLDY    56  41  57 S10       29.62F
WARSAW         NOT AVBL
CHILLICOTHE      N/A     56  38  50 SE6       29.59F
KIRKSVILLE     CLOUDY    49  32  52 S7        29.61F

$$

MOZ041-047>049-056>058-063>065-088>090-097-250900-
...EASTERN AND SOUTHERN MISSOURI...

CITY           SKY/WX    TMP DP  RH WIND       PRES   REMARKS
ST. LOUIS INTL PTCLDY    61  45  55 S5        29.69F
SPIRIT OF STL  CLEAR     59  48  67 S3        29.68F
COLUMBIA       MOCLDY    54  40  59 S8        29.65F
JEFFERSON CITY MOCLDY    55  40  56 CALM      29.66S
ROLLA          MOCLDY    55  43  63 S10       29.66F
OSAGE BEACH    MOCLDY    57  42  57 S6        29.66F
SPRINGFIELD    CLEAR     57  40  52 S13       29.64F
BRANSON        CLEAR     54  41  62 SE8       29.67F
JOPLIN         CLEAR     56  44  64 SE8       29.60F
WEST PLAINS    CLEAR     56  45  66 S6        29.71F

$$

IAZ060-094-KSZ022-034>040-054-083-096-NEZ052-066-093-250900-
...KANSAS...SOUTHEAST NEBRASKA AND IOWA...

CITY           SKY/WX    TMP DP  RH WIND       PRES   REMARKS
TOPEKA         CLOUDY    62  49  62 SE9       29.50F
MANHATTAN      CLOUDY    64  48  56 S10G17    29.47F
EMPORIA        CLOUDY    60  49  66 S16       29.51F
CHANUTE        CLOUDY    60  47  61 SE13      29.55F
WICHITA        MOCLDY    61  49  64 SE16      29.43F
OMAHA          CLOUDY    54  43  66 N12       29.51S
LINCOLN        MOCLDY    52  42  69 N14       29.54F
FALLS CITY     CLOUDY    55  47  74 SE6       29.49F
LAMONI         CLEAR     57  37  47 S9        29.55F
DES MOINES     MOCLDY    60  37  42 SE8       29.53F

$$





USA.gov is the U.S. government's official web portal to all federal, state and local government web resources and services.